Weather History for Denver, CO

Change the Weather History Date:

Thursday, April 4, 2013

  Actual Average Record
Temperature  
Mean Temperature 52 °F 45 °F  
Max Temperature 68 °F 59 °F 76 °F (1967)
Min Temperature 36 °F 31 °F 6 °F (1920)
Degree Days  
Heating Degree Days 13 20  
Month to date heating degree days 79 82  
Since 1 July heating degree days 5191 5284  
Cooling Degree Days 0 0  
Month to date cooling degree days 0 0  
Year to date cooling degree days 0 0  
Growing Degree Days 2 (Base 50)    
Moisture  
Dew Point 26 °F    
Average Humidity 40    
Maximum Humidity 64    
Minimum Humidity 15    
Precipitation  
Precipitation 0.00 in 0.03 in 0.89 in (1997)
Month to date precipitation 0.07 0.14  
Year to date precipitation 2.62 1.84  
Snow  
Snow 0.00 in - - ()
Month to date snowfall 0  
Since 1 July snowfall 54.6  
Snow Depth 0.00 in    
Sea Level Pressure  
Sea Level Pressure 30.00 in    
Wind  
Wind Speed 6 mph (SSE)    
Max Wind Speed 17 mph    
Max Gust Speed 21 mph    
Visibility 10 miles    
Events      
T = Trace of Precipitation, MM = Missing Value Source: NWS Daily Summary

Daily Weather History Graph

Daily Weather History Graph

Search for Another Location

Airport:

Trip Planner

Search our weather history database for the weather conditions in past years. The results will help you decide how hot, cold, wet, or windy it might be!

Date:

Astronomy

Apr. 04, 2013 Rise Set
Actual Time 6:37 AM MDT 7:26 PM MDT
Civil Twilight 6:10 AM MDT 7:53 PM MDT
Nautical Twilight 5:37 AM MDT 8:26 PM MDT
Astronomical Twilight 5:04 AM MDT 8:59 PM MDT
Moon 3:05 AM MDT (4/4) 1:47 PM MDT (4/4)
Length of Visible Light 13h 43m
Length of Day
12h 48m
Waning Crescent, 33% of the Moon is Illuminated
Apr 4
Waning Crescent
Apr 10
New
Apr 18
First Quarter
Apr 25
Full
May 2
Last Quarter

Hourly Weather History & Observations

Time (MDT) Temp. Windchill Dew Point Humidity Pressure Visibility Wind Dir Wind Speed Gust Speed Precip Events Conditions
12:53 AM 45.0 °F 41.2 °F 26.1 °F 48% 30.05 in 10.0 mi SW 6.9 mph - N/A   Mostly Cloudy
1:53 AM 44.1 °F - 27.0 °F 51% 30.05 in 10.0 mi Calm Calm - N/A   Mostly Cloudy
2:53 AM 43.0 °F 40.3 °F 27.0 °F 53% 30.05 in 10.0 mi WSW 4.6 mph - N/A   Scattered Clouds
3:53 AM 42.1 °F - 26.1 °F 53% 30.04 in 10.0 mi Calm Calm - N/A   Scattered Clouds
4:53 AM 42.1 °F - 27.0 °F 55% 30.06 in 10.0 mi Calm Calm - N/A   Scattered Clouds
5:53 AM 43.0 °F - 28.0 °F 56% 30.05 in 10.0 mi Calm Calm - N/A   Scattered Clouds
6:53 AM 39.0 °F - 28.9 °F 67% 30.09 in 10.0 mi Calm Calm - N/A   Clear
7:53 AM 44.1 °F 40.8 °F 32.0 °F 63% 30.10 in 10.0 mi SSW 5.8 mph - N/A   Partly Cloudy
8:53 AM 48.0 °F - 32.0 °F 54% 30.11 in 10.0 mi SE 5.8 mph - N/A   Partly Cloudy
9:53 AM 53.1 °F - 32.0 °F 45% 30.08 in 10.0 mi ESE 5.8 mph - N/A   Scattered Clouds
10:53 AM 55.9 °F - 30.9 °F 39% 30.06 in 10.0 mi SSE 5.8 mph - N/A   Scattered Clouds
11:53 AM 61.0 °F - 25.0 °F 25% 30.03 in 10.0 mi Calm Calm - N/A   Scattered Clouds
12:53 PM 63.0 °F - 21.0 °F 20% 30.00 in 10.0 mi Calm Calm - N/A   Scattered Clouds
1:53 PM 63.0 °F - 19.9 °F 19% 29.98 in 10.0 mi Calm Calm - N/A   Scattered Clouds
2:53 PM 66.0 °F - 19.9 °F 17% 29.95 in 10.0 mi Variable 5.8 mph - N/A   Scattered Clouds
3:53 PM 66.0 °F - 19.9 °F 17% 29.93 in 10.0 mi South 8.1 mph - N/A   Scattered Clouds
4:53 PM 66.9 °F - 17.1 °F 15% 29.90 in 10.0 mi Variable 3.5 mph - N/A   Scattered Clouds
5:53 PM 66.0 °F - 19.0 °F 17% 29.90 in 10.0 mi ESE 8.1 mph - N/A   Scattered Clouds
6:53 PM 60.1 °F - 25.0 °F 26% 29.93 in 10.0 mi SE 10.4 mph - N/A   Mostly Cloudy
7:53 PM 51.1 °F - 27.0 °F 39% 29.94 in 10.0 mi SE 11.5 mph - N/A   Mostly Cloudy
8:53 PM 46.9 °F - 28.0 °F 48% 29.95 in 10.0 mi SSE 12.7 mph - N/A   Mostly Cloudy
9:53 PM 48.0 °F - 28.0 °F 46% 29.93 in 10.0 mi SSE 11.5 mph - N/A   Mostly Cloudy
10:53 PM 48.0 °F - 27.0 °F 44% 29.91 in 10.0 mi SSE 12.7 mph - N/A   Mostly Cloudy
11:53 PM 48.0 °F - 26.1 °F 42% 29.88 in 10.0 mi South 12.7 mph - N/A   Mostly Cloudy